Content
SEND FEEDBACK

Daily
Averages
Monthly
Summary
United States of America

ST. LOUIS, MISSOURI


Home > North America > United States > Missouri
Elevation: 535 feet     Latitude: 38 45N     Longitude: 090 22W

WEATHER
 
SELECT A DAY
Number of Records: 196,364;   Date Range: 1/1/95 - 7/26/14
 
SHARE

PRINT THIS DATA

[ ← Previous Day ]
WEATHER ALMANAC - OCTOBER 5, 2013
[ Next Day → ]
[ °C ]   °F
Weather ElementAverageHighLow
Temperature66.2 °F75.9 °F (10:54 am)55 °F (9:54 pm)
Dewpoint61.7 °F69.1 °F (1:54 am)51.1 °F (10:54 pm)
Humidity86 %94 % (5:39 pm)62 % (10:54 am)
Barometer29.90 in29.95 in (10:29 am)29.83 in (1:54 pm)
Wind Speed7.4 mph16.1 mph (5:54 pm)
Wind Gust24.2 mph (5:39 pm)
Weather ElementAverage
Visibility9.7 mi
Wind DirectionSSW (200.6 °)

Weather ElementTotal
Precipitation0.28 in
Cooling Degree Days0.5 (Base 65)
Growing Degree Days15.5 (Base 50)
Averaged from 32 records on October 5, 2013
WEATHER CONDITIONS BREAKOUT
WIND DIRECTION BREAKOUT
WEATHER BY HOUR - OCTOBER 5, 2013
[ °C ]   °F
Local TimeTemperatureDewpointHumidityBarometerVisibilityWind DirectionWind SpeedGust SpeedPrecipitationEventsConditions
1:54 AM73.0 °F69.1 °F87 %29.92 in10.0 miSSW (210°)4.6 mphClear
2:54 AM73.0 °F69.1 °F87 %29.90 in10.0 miSouth (180°)4.6 mphClear
3:54 AM72.0 °F69.1 °F91 %29.89 in10.0 miSouth (190°)5.8 mphClear
4:54 AM72.0 °F69.1 °F91 %29.89 in10.0 miVariable4.6 mphClear
5:54 AM71.1 °F68.0 °F90 %29.89 in10.0 miCalmClear
6:54 AM71.1 °F68.0 °F90 %29.89 in10.0 miCalmMostly Cloudy
7:54 AM72.0 °F69.1 °F91 %29.89 in10.0 miSSW (200°)4.6 mphMostly Cloudy
8:54 AM73.9 °F69.1 °F85 %29.91 in10.0 miSW (220°)9.2 mphMostly Cloudy
9:54 AM75.0 °F66.9 °F76 %29.91 in10.0 miWest (270°)6.9 mphMostly Cloudy
10:29 AM75.2 °F62.6 °F65 %29.95 in10.0 miWest (280°)8.1 mphOvercast
10:54 AM75.9 °F62.1 °F62 %29.93 in10.0 miWNW (300°)6.9 mphOvercast
11:54 AM75.9 °F62.1 °F62 %29.92 in10.0 miWest (280°)6.9 mphOvercast
12:54 PM69.1 °F64.0 °F84 %29.93 in5.0 miSW (220°)10.4 mph0.07 inRainRain
1:54 PM71.1 °F64.9 °F81 %29.83 in10.0 miCalm0.03 inMostly Cloudy
2:54 PM72.0 °F66.9 °F84 %29.86 in10.0 miVariable3.5 mphMostly Cloudy
3:54 PM72.0 °F66.0 °F81 %29.86 in10.0 miSSW (210°)6.9 mph0.00 inMostly Cloudy
4:54 PM71.1 °F66.0 °F84 %29.86 in10.0 miSW (230°)3.5 mphMostly Cloudy
5:25 PM69.8 °F66.2 °F88 %29.88 in10.0 miWest (260°)15.0 mph21.9 mphOvercast
5:39 PM64.4 °F62.6 °F94 %29.89 in10.0 miWSW (250°)15.0 mph24.2 mphOvercast
5:54 PM63.0 °F60.1 °F90 %29.88 in10.0 miWSW (250°)16.1 mph23.0 mph0.00 inRainLight Rain
6:54 PM60.1 °F57.0 °F90 %29.89 in10.0 miWSW (250°)5.8 mph0.01 inRainLight Rain
7:01 PM60.8 °F57.2 °F88 %29.91 in10.0 miWest (260°)15.0 mph20.7 mph0.01 inRainLight Rain
7:40 PM57.2 °F55.4 °F94 %29.93 in10.0 miWest (270°)9.2 mph0.04 inRainLight Rain
7:54 PM57.9 °F55.9 °F93 %29.88 in6.0 miCalm0.06 inRainLight Rain
8:04 PM57.2 °F55.4 °F94 %29.89 in8.0 miNW (310°)5.8 mph0.01 inRainLight Rain
8:11 PM57.2 °F55.4 °F94 %29.90 in10.0 miWest (280°)11.5 mph0.01 inRainLight Rain
8:49 PM57.2 °F53.6 °F88 %29.91 in10.0 miWest (260°)9.2 mph0.02 inOvercast
8:54 PM57.0 °F54.0 °F89 %29.90 in10.0 miWest (260°)10.4 mph0.02 inOvercast
9:26 PM55.4 °F53.6 °F94 %29.92 in10.0 miWSW (250°)11.5 mphOvercast
9:54 PM55.0 °F52.0 °F89 %29.91 in10.0 miWSW (240°)8.1 mph0.00 inOvercast
10:54 PM55.0 °F51.1 °F86 %29.92 in10.0 miWSW (240°)10.4 mphOvercast
11:54 PM55.0 °F52.0 °F89 %29.90 in10.0 miWSW (250°)8.1 mphMostly Cloudy
Hourly data recorded from KSUS, located miles away from St. Louis, Missouri







STORIES FROM OUR PARTNERS